User: anonymous   Login
Location: Norwich
(52.6280°N, 1.3030°E)
Time: 12:34:00
(UTC+01:00)
Language:

APEX - Orbit

View from above orbital plane
View from above orbital plane
View from above satellite
View from above satellite

Ground track
Ground track

The orbit data is extracted from the following two-line orbital elements,

1 23191U 94046A   15115.52338396  .00025871  00000-0  94570-3 0  9992
2 23191 069.9321 211.8147 0689815 242.3615 203.3699 14.17695050  4556
Epoch (UTC): 25 April 2015 12:33:40
Eccentricity: 0.0689815
inclination: 69.9321°
perigee height: 336 km
apogee height: 1330 km
right ascension of ascending node: 211.8147°
argument of perigee: 242.3615°
revolutions per day: 14.17695050
mean anomaly at epoch: 203.3699°
orbit number at epoch: 455

The dashed part of the orbit path shows where the satellite is in the earth's shadow,  

DLR